Погода Алтай

Погода Алтай : погода сейчас, прогноз погоды и архив. Всё, что Вы хотите узнать о погоде Алтай!

Поиск расширенной информации на нашем сайте:

Другие новости

Новости СМИ2

Главная страница сайта

Новости сайта

03.07.2017

Напоминаем, что на нашем специализированном сайте Метеоцентр.Азия вы можете получить высокодетализированные автоматические прогнозы погоды по пунктам России, СНГ и мира в авиационном формате (включающие направление и скорость ветра, видимость, явления погоды, количество и форму облачности, нижнюю и верхнюю границу облачности).

Рекомендуем: купить офис в бизнес центре хамовническая слобода

Погода Алтай - сегодня

Время (UTC), дата Ветер
(°,м/с) 
Видим.   Явления Облачность Т
(°С)
Тd
(°С)
f(%) Тe
(°С)
Pmin
(гПа)
dP
(гПа)
Po
(мм)
O2
(г/м3)
Тmin Tmax R s Состояние
почвы
03 18.07.17 060 (СВ) 20000 м    8/8 600 м 
[Sc]
+19.4 +14 71 +28  1017.3  760  283  +14.4         
06 18.07.17 050 (СВ) н/о    н/о 
+24.4 +12.3 47 +28  1016.9  -0.4  760  279           
09 18.07.17 050 (СВ) 20000 м    8/8 600 м 
[Cu med, cong]
+26.6 +10.8 37 +29  1016.5  -0.3  760  277           
12 18.07.17 010 (С) н/о    н/о 
+26.7 +8.9 33 +27  1015.7  -0.8  759  277           
15 18.07.17 010 (С) 20000 м    1/0 средняя 
[Ac trans]
+24.7 +10.4 41 +26  1015.3  -0.4  759  279    +26.9       
18 18.07.17 340 (С) 20000 м    6/6 600 м 
[Sc]
+19.5 +12.2 63 +25  1015.6  0.2  759  283           
21 18.07.17 330 (СЗ) 20000 м    3/0 средняя, верхняя 
[Ac trans|Ci fib]
+14.9 +11.3 79 +19  1014.9  -0.8  758  288           
00 19.07.17 310 (СЗ) 20000 м    3/0 верхняя 
[Ci sp]
+15.3 +12.5 83 +20  1014.7  -0.2  758  287           
03 19.07.17 030 (СВ) 20000 м    3/3 600 м кучево-дожд. 
[Cb calv]
+23.3 +14.1 56 +30  1014.1  -0.5  758  279  +13.8         
06 19.07.17 030 (СВ) н/о    н/о 
+26 +13.1 45 +31  1013.6  -0.4  757  276           
09 19.07.17 050 (СВ) 20000 м    8/4 600 м верхняя 
[Cu med, cong|Ci fib]
+26.3 +9.6 35 +27  1012.7  -1  757  276           
12 19.07.17 040 (СВ) н/о    н/о 
+26 +9.9 36 +27  1012.3  -0.3  756  277           
15 19.07.17 070 (В) 20000 м    8/3 600 м верхняя 
[Cu med, cong|Ci sp]
+24.1 +10.8 43 +26  1012.5  0.1  757  278    +26.8       
18 19.07.17 тихо ()   20000 м    4/4 600 м 
[Sc]
+17.8 +12.6 72 +22  1013.1  0.6  757  284           
21 19.07.17 040 (СВ) 20000 м    ясно 
+13.8 +12.4 91 +19  1013.1  0.1  757  288           
00 20.07.17 020 (С) 20000 м    ясно 600 м 
+14.7 +13.2 91 +21  1013.3  0.2  757  287           
03 20.07.17 070 (В) 20000 м    3/0 верхняя 
[Ci fib]
+21.6 +15.5 68 +31  1013.6  0.4  757  280  +12.9         
06 20.07.17 120 (ЮВ) н/о    н/о 
+24.6 +11.5 44 +28  1013.7  0.2  758  278           
09 20.07.17 070 (В) 20000 м    3/3 600 м 
[Cu hum]
+26.2 +10.4 37 +28  1013.6  -0.2  757  277           
12 20.07.17 060 (СВ) н/о    н/о 
+26.6 +12.1 41 +30  1012.9  -0.6  757  276           
15 20.07.17 070 (В) 20000 м    4/0 верхняя 
[Ci fib]
+25.1 +13.1 47 +30  1013.3  0.4  757  277    +26.8       
18 20.07.17 340 (С) 20000 м    3/0 верхняя 
[Ci fib]
+18.3 +12.2 68 +24  1014  0.6  758  284           
21 20.07.17 340 (С) 20000 м    3/3 600 м кучево-дожд., верхняя 
[Cb calv|Ci fib]
+15.1 +12.8 86 +21  1013.9  0.1  758  287           
00 21.07.17 310 (СЗ) 20000 м    6/1 600 м кучево-дожд., верхняя 
[Cb calv|Ci sp]
+14.9 +12.9 88 +21  1014.5  0.6  758  287           
03 21.07.17 070 (В) 20000 м    8/0 верхняя 
[Ci sp]
+23.2 +16 64 +33  1014.7  0.3  758  278  +14.3         
Время (UTC), дата Ветер
(°,м/с) 
Видим.   Явления Облачность Т
(°С)
Тd
(°С)
f(%) Тe
(°С)
Pmin
(гПа)
dP
(гПа)
Po
(мм)
O2
(г/м3)
Тmin Tmax R s Состояние
почвы

Для получения пояснительной информации подведите курсор к названию столбца.

ПОГОДА Алтай - архив

Всё, что Вы хотите узнать о погоде Алтай - удобно и подробно!

Выберите нужную дату (начиная с 1 января 2015* года) и нажмите кнопку "Найти".
Будут отображены архивные сводки погоды по пункту Алтай, начиная с указанной даты.


Отображать данные в формате CSV (для использования в таблицах Excel)


Внимание! Наш архив погоды предназначен исключительно для личного некоммерческого использования в познавательных целях. Если Вам необходимы официальные справки о состоянии погоды (для производственных, юридических, коммерческих и т.п. целей), обращайтесь в органы Росгидромета.

*Примечание: данная дата относится к архиву по метеостанциям СССР (Россия, СНГ, Балтия).
Архив по метеостанциям Зарубежной Европы и Азии (кроме Китая) хранится 10 дней, по другим регионам земного шара (Китай, Африка, Америка, Австралия, Океания) - 1 день.

Алтай - район местоположения метеостанции


Название, широта, долгота, высота метеостанции:
Алтай 60.3°ш. 68.9°д. 30 м над ур. моря [Российская Федерация]

Дополнительная информация

В oтличие oт бoльшинства пoгoдных сайтoв мы публикуем пoдрoбную метеoинфoрмацию в детальнoм прoфессиoнальнoм фoрмате.

Характеристики температуры и влажнoсти вoздуха измеряются на высoте 2 м в тени вдали oт зданий и деревьев.
Скoрoсть ветра измеряется на высoте 10 м (на урoвне рoста челoвека скoрoсть ветра ниже в 1.5-2 раза). Если метеoстанция нахoдится в гoрoде или в лесу, тo скoрoсть ветра занижена на 2-4 м/с пo сравнению с oткрытым местoм. Скoрoсть ветра над акватoриями крупных рек и oзёр, а также на вершинах хoлмoв на 2-5 м/с выше, чем в oбычных услoвиях.
Атмoсфернoе давление в разных тoчках местнoсти мoжет значительнo oтличаться oт давления на метеoстанции, в зависимoсти oт услoвий рельефа (при пoдъёме на 10 м давление пoнижается примернo на 1 мм рт.ст.).